Location: Kalefeld
(51.7975°N, 10.0338°E)
Time: 15:57:50
(UTC+00:00)

NOSS 3-2 (A) - Pass Details

Date: 11 December 2025
Orbit: 669 x 1534 km, 63.4° (Epoch: 2 January)

Event Time Altitude Azimuth Distance (km) Brightness Sun altitude
Rises 17:31:46 0° 257° (WSW) 3,207 7.8 -20.7°
Reaches altitude 10° 17:34:07 10° 264° (W) 2,369 6.7 -21.1°
Maximum altitude 17:39:16 41° 335° (NNW) 1,286 4.2 -21.8°
Enters shadow 17:42:19 26° 28° (NNE) 1,842 4.6 -22.3°
